Location: Sant’Arcangelo Trimonte
(41.1667°N, 14.9333°E)
Time: 06:45:43
(UTC+00:00)

Daily predictions for brighter satellites

Satellite Brightness Start Highest point End
(mag) Time Altitude Azimuth Time Altitude Azimuth Time Altitude Azimuth
SPOT 5 3.2 18:52:16 10° SSE 18:57:25 63° ENE 19:02:41 10° N
Cosmos 292 Rocket 3.9 18:55:13 10° SSW 19:00:00 86° WNW 19:04:47 10° NNE
CSL-04 Debris 4.3 18:57:35 10° SSE 19:02:57 85° WSW 19:08:20 10° NNW
Tsikada Rocket 4.1 18:56:51 10° S 19:03:08 66° E 19:09:29 10° NNE
ERS-1 Rocket 3.7 18:58:54 10° SE 19:03:25 36° ENE 19:07:57 10° N
ADEOS 3.7 18:58:18 10° SSE 19:03:30 83° WSW 19:08:44 10° NNW
Cosmos 2297 4.3 18:58:42 10° S 19:03:47 36° ESE 19:08:55 10° NE
USA 186 1.3 19:01:06 10° SSE 19:03:49 86° ENE 19:06:32 10° N
Resurs 01 Rocket 3.4 19:00:28 10° SSW 19:04:26 33° W 19:08:27 10° NNW
Cosmos 1656 Rocket 3.6 19:04:51 10° SSW 19:10:23 73° ESE 19:15:53 10° NNE
CSL-04 Rocket 4.0 19:07:03 10° S 19:12:24 69° WSW 19:17:53 10° NNW
Okean-O 3.4 19:09:10 10° SE 19:13:06 34° ENE 19:17:05 10° N
COSMOS 2406 3.3 19:07:21 10° NNW 19:13:08 80° ENE 19:18:51 10° SSE
TRACE 2.5 19:12:49 10° NNE 19:14:32 86° ESE 19:16:12 10° SSW
Cosmos 1378 Rocket 4.3 19:11:47 10° SSE 19:15:37 32° E 19:19:27 10° NNE
SL-08 R/B 4.1 19:13:56 10° N 19:18:26 55° WNW 19:23:00 10° SSW
CZ-4B R/B 3.2 19:13:16 10° SSE 19:18:39 87° WSW 19:24:09 10° NNW
Okean O Rocket 1.8 19:15:36 10° SSE 19:19:50 54° ENE 19:24:07 10° N
Cosmos 2082 Rocket 3.2 19:23:40 10° NW 19:29:05 45° WSW 19:34:28 10° S
CZ-4 R/B 3.4 19:28:00 10° SSW 19:31:03 24° W 19:34:08 10° NW
Cosmos 2208 Rocket 4.0 19:28:26 10° NNW 19:33:43 82° ENE 19:38:45 12° SSE
Cosmos 1503 Rocket 4.0 19:30:20 10° S 19:35:26 64° ESE 19:40:32 10° NNE
MOS 1 4.4 19:31:59 10° SSE 19:37:38 83° WSW 19:43:18 10° NNW
Cosmos 2369 Rocket 2.2 19:33:22 10° SSW 19:39:01 70° ESE 19:44:41 10° NNE
Cosmos 1354 Rocket 4.1 19:39:50 10° S 19:44:54 54° ESE 19:49:59 10° NNE
Cosmos 773 Rocket 4.0 19:44:17 10° NNW 19:49:35 88° WSW 19:53:57 15° SSE
ASTEX 1 4.0 19:45:30 10° NNE 19:49:58 36° E 19:52:49 19° SE
DELTA 2 R/B (1) 3.8 19:46:28 10° SW 19:51:44 48° SSE 19:57:03 10° E
Ariane Rocket 3.8 19:52:52 19° ESE 19:55:53 35° ENE 20:00:27 10° N
CZ-4B R/B 3.8 19:54:06 10° S 19:57:26 39° W 20:00:56 10° NNW
CZ-4C R/B 1.8 19:53:44 10° S 19:57:34 44° ESE 20:02:14 10° NE
Cosmos 1340 Rocket 3.0 19:55:49 10° NNW 19:59:38 63° W 20:02:38 15° S
CZ-4B R/B 4.3 19:55:03 10° S 20:00:06 49° W 20:05:07 10° NNW
Cosmos 2263 4.1 19:54:32 10° SSW 20:00:12 77° ESE 20:05:51 10° NNE
ISS -0.9 19:58:33 10° NNW 20:00:25 14° N 20:02:17 10° NE
Okean 2 Rocket 3.2 19:59:03 10° N 20:03:22 57° E 20:05:44 25° SSE
Tiangong -1.6 20:02:05 10° SW 20:05:08 39° SSE 20:05:42 35° SE
Cosmos 1777 Rocket 4.4 20:00:08 10° SSW 20:05:18 64° WNW 20:10:29 10° NNE
Cosmos 1869 2.9 20:02:13 10° N 20:05:47 85° E 20:07:37 27° S
BREEZE-M DEB (TANK) 1.5 20:05:12 10° SW 20:07:24 77° SE 20:11:40 10° ENE
Cosmos 44 2.9 20:05:12 10° SSW 20:09:25 61° ESE 20:13:44 10° NE
Cosmos 2151 Rocket 3.5 20:05:40 10° N 20:10:11 87° E 20:12:58 23° S
Nadezhda 4 Rocket 4.1 20:06:35 17° SSE 20:11:30 59° E 20:17:42 10° NNE
Helios 1B rocket 3.6 20:11:56 12° SSW 20:14:57 33° W 20:18:19 10° NNW
Cosmos 1975 Rocket 4.4 20:16:28 21° E 20:16:50 21° E 20:20:06 10° NE
Okean 1 Rocket 3.1 20:13:13 10° N 20:17:33 63° E 20:19:24 32° SSE
Cosmos 2221 Rocket 3.5 20:15:21 18° S 20:18:40 87° E 20:23:14 10° N
Helios 1A 3.8 20:15:41 10° N 20:19:29 48° WNW 20:23:17 10° SSW
Cosmos 2285 Rocket 4.2 20:14:50 16° S 20:19:44 54° ESE 20:25:57 10° NNE
Terra 2.8 20:18:53 13° SSW 20:22:47 43° W 20:27:17 10° NNW
Cosmos 1867 4.0 20:22:16 27° SSE 20:24:32 39° ESE 20:29:34 10° NE
TSX-5 4.0 20:21:40 10° NW 20:24:44 46° WSW 20:25:51 32° SSW
SPOT 3 Rocket 3.5 20:23:33 28° SSE 20:26:19 77° ENE 20:31:32 10° N
NOSS 3-4 (A) 3.9 20:21:03 10° NW 20:28:07 84° WSW 20:33:06 26° SSE
NOSS 3-4 (C) 3.9 20:21:06 10° NW 20:28:10 85° WSW 20:33:06 26° SSE
Cosmos 1455 Rocket 3.7 20:25:06 10° N 20:29:07 37° ENE 20:30:04 33° ESE
Cosmos 2026 Rocket 4.4 20:27:47 29° SE 20:30:21 43° E 20:36:01 10° NNE
Spot 2 Rocket 3.9 20:27:14 21° S 20:30:36 60° W 20:35:38 10° NNW
IRS-1C Rocket 4.1 20:32:23 27° S 20:35:19 77° WSW 20:40:36 10° NNW
Sich 1 Rocket 3.8 20:31:04 10° NNW 20:35:38 72° W 20:37:45 31° S
Cosmos 1428 Rocket 4.4 20:33:01 24° S 20:36:49 73° E 20:43:00 10° N
Cosmos 1898 Rocket 3.9 20:36:10 35° SE 20:37:20 41° ESE 20:42:13 10° NE
Cosmos 1818 3.5 20:35:14 10° NNW 20:40:42 85° WSW 20:42:53 38° SSE
Cosmos 1833 4.1 20:36:38 10° NNW 20:42:21 86° ENE 20:44:42 37° SSE
USA 245 4.5 20:40:43 22° SSW 20:43:00 38° WSW 20:46:27 10° NNW
Cosmos 1538 Rocket 4.3 20:40:42 10° N 20:45:59 55° ENE 20:47:45 38° ESE
PSLV R/B 3.2 20:49:19 81° NNE 20:49:19 81° NNE 20:52:20 10° NNW
Cosmos 1092 Rocket 4.1 20:50:30 35° SSE 20:53:08 62° E 20:59:21 10° NNE
Cosmos 1812 2.4 20:50:43 10° NNW 20:53:43 68° WNW 20:53:43 68° WNW
Cosmos 1900 4.4 20:50:18 13° SSW 20:54:48 82° WNW 20:59:55 10° NNE
Okean O Rocket 4.2 20:54:15 10° WSW 20:56:22 13° W 20:58:29 10° WNW
Cosmos 1025 Rocket 4.3 20:54:32 16° SW 20:57:37 38° WNW 21:01:41 10° N
Meteor 2-1 Rocket 4.3 20:53:31 10° NNW 20:59:20 77° W 21:01:41 37° S
Cosmos 1656 4.2 21:05:49 38° ESE 21:05:56 38° ESE 21:11:02 10° NE
Aureole 1 Rocket 4.1 21:03:25 24° SSW 21:07:32 88° WNW 21:14:57 10° NNE
DELTA 2 DEB (DPAF) 4.3 21:08:49 10° NNE 21:11:59 45° ENE 21:11:59 45° ENE
RESURS DK-1 4.1 21:13:46 10° N 21:16:51 21° NE 21:17:10 21° ENE
Cosmos 372 Rocket 4.0 21:14:59 38° SSW 21:16:56 77° WNW 21:22:02 10° NNE
Cosmos 1544 Rocket 4.3 21:15:30 10° N 21:19:31 40° ENE 21:19:31 40° ENE
DNEPR-1 R/B 3.6 21:20:08 10° NNW 21:24:20 62° NE 21:24:32 61° ENE
Cosmos 1400 Rocket 4.1 21:25:39 10° N 21:28:20 29° NE 21:28:20 29° NE
Meteor 1-27 4.1 21:26:47 10° N 21:32:34 87° W 21:33:45 58° S
Cosmos 1937 Rocket 3.4 21:34:18 57° SSW 21:35:20 81° WNW 21:40:29 10° NNE
DELTA 2 R/B (1) 3.4 21:32:21 10° W 21:37:53 76° S 21:38:43 63° ESE
ISS -1.9 21:34:58 10° NW 21:37:42 29° NNE 21:37:42 29° NNE
Cosmos 2297 Rocket 3.2 21:32:50 10° N 21:37:59 34° ENE 21:39:27 30° E
Cosmos 2098 Rocket 3.4 21:38:16 10° NNW 21:40:46 48° NNW 21:40:46 48° NNW
Cosmos 1680 Rocket 3.8 21:36:45 10° N 21:41:56 54° ENE 21:42:31 51° E
ALOS 2 4.0 21:44:36 28° ENE 21:44:36 28° ENE 21:48:14 10° N
Cosmos 1980 Rocket 4.4 21:46:39 11° E 21:46:39 11° E 21:47:06 10° ENE
CZ-4C R/B 4.1 21:42:26 10° W 21:46:06 24° NW 21:50:29 10° NNE
Cosmos 858 Rocket 4.4 21:48:12 71° SW 21:48:46 84° WNW 21:53:58 10° NNE
Cosmos 1697 Rocket 3.8 21:50:21 30° E 21:50:21 30° E 21:54:24 10° NE
Cosmos 381 Rocket 4.4 21:44:35 10° NNW 21:50:53 75° WSW 21:52:07 58° S
Cosmos 2360 4.1 21:51:09 63° ESE 21:51:18 64° ESE 21:56:55 10° NNE
Cosmos 923 Rocket 3.8 21:48:04 10° NNW 21:53:17 88° WSW 21:53:32 81° S
Lacrosse 5 rocket 4.2 21:52:10 10° N 21:53:32 11° NNE 21:54:55 10° NE
Cosmos 1975 Rocket 4.5 21:53:27 28° W 21:54:21 30° WNW 21:58:10 10° NNW
MetOp-A 4.2 21:55:24 43° NNE 21:55:24 43° NNE 21:58:12 10° N
Cosmos 2228 3.8 21:59:32 10° NNW 22:03:10 43° WNW 22:03:10 43° WNW
Cosmos 2227 Rocket 3.6 22:05:46 10° N 22:10:42 29° NE 22:12:20 25° E
GEOS 3 Rocket 4.0 22:06:20 10° NE 22:10:45 51° E 22:10:45 51° E
Gbstr 26 Del rocket 4.3 22:07:04 10° NW 22:12:32 59° NNE 22:15:20 33° E
Cosmos 494 Rocket 4.1 22:09:25 10° NNW 22:14:35 61° ENE 22:14:39 61° ENE
Cosmos 2266 Rocket 3.9 22:19:20 67° S 22:20:18 87° E 22:26:45 10° N
Spot 4 3.9 22:21:20 78° N 22:21:20 78° N 22:25:50 10° NNW
CZ-2C R/B 4.4 22:18:54 10° N 22:23:27 49° WNW 22:23:40 48° W
ARIANE 5 R/B 3.4 22:30:39 46° WNW 22:30:39 46° WNW 22:34:15 10° NNW
Cosmos 2315 Rocket 4.0 22:29:09 10° N 22:35:32 70° E 22:36:19 64° SE
Cosmos 883 Rocket 4.4 22:32:08 10° N 22:38:31 78° E 22:39:13 69° SE
BlueWalker 3 3.8 22:35:05 10° NW 22:36:57 27° NNW 22:36:57 27° NNW
ATLAS 2AS CENTAUR R/B 4.0 22:45:57 10° NNW 22:52:02 34° NE 22:57:04 14° E
RESURS DK-1 4.4 22:50:49 10° NW 22:52:29 21° WNW 22:52:29 21° WNW
S3M 4.1 22:49:37 10° NNW 22:55:49 61° W 22:56:23 58° WSW
Cosmos 2263 Rocket 3.3 22:53:06 10° N 22:58:15 35° ENE 22:59:46 30° E
USA 215 3.6 22:58:08 29° ESE 23:01:35 64° NE 23:08:03 10° NW
Cosmos 1932 4.4 23:08:26 66° WSW 23:09:19 77° WNW 23:15:42 10° NNE
Cosmos 1655 Rocket 4.1 23:09:38 62° WSW 23:10:27 68° W 23:16:49 10° N
SL-16 R/B 4.2 23:17:31 15° E 23:17:31 15° E 23:20:37 10° ENE
ALOS 2 4.4 23:22:00 23° WNW 23:22:00 23° WNW 23:24:29 10° NW
Cosmos 2297 Rocket 3.2 23:16:54 10° NW 23:21:13 33° W 23:21:13 33° W
Cosmos 2219 4.0 23:17:57 10° NNW 23:23:25 45° ENE 23:24:45 39° E
Cosmos 2058 Rocket 3.7 23:20:31 10° N 23:23:59 54° NNW 23:23:59 54° NNW
Cosmos 1980 Rocket 2.0 23:28:23 88° WNW 23:28:23 88° WNW 23:34:02 10° NNE
Nadezhda 2 Rocket 4.4 23:28:33 71° SSE 23:29:17 82° E 23:35:42 10° N
Orbus 7S? 4.0 23:29:20 75° NW 23:29:20 75° NW 23:37:07 10° NE
Lacrosse 5 rocket 2.7 23:28:06 10° NNW 23:31:05 36° N 23:31:05 36° N
Cosmos 1697 Rocket 3.7 23:32:03 34° W 23:33:17 38° WNW 23:38:33 10° N
CZ-2C R/B 3.1 23:36:53 49° ESE 23:37:46 55° ENE 23:43:13 10° N
Cosmos 1602 Rocket 4.4 23:45:39 45° ENE 23:45:39 45° ENE 23:49:06 10° NNE
Cosmos 1758 Rocket 4.0 23:47:54 59° NNE 23:47:54 59° NNE 23:51:32 10° N
Meteor 2-3 Rocket 4.4 23:46:45 41° W 23:47:20 42° WNW 23:52:49 10° N
Cosmos 1626 Rocket 4.1 23:49:13 55° NNW 23:49:13 55° NNW 23:52:46 10° N
CENTAUR R/B 3.6 23:49:44 25° ESE 23:49:46 25° ESE 23:54:42 10° NE
IDEFIX/ARIANE 42P 4.0 23:46:28 10° NE 23:50:44 26° E 23:51:12 25° ESE
Cosmos 1125 Rocket 4.3 23:52:54 40° WNW 23:53:20 41° WNW 23:58:18 10° N
